Terminal Aerodrome Forecast
Issued by NWS

Home | Current Version | Previous Version | Text Only | Print | Product List | Glossary On
Versions: 1 2 3 4 5 6 7 8 9 10 11 12 13
000
FTUS44 KCRP 281120
TAFLRD
TAF
KLRD 281120Z 2812/2912 12008KT P6SM SCT015
      TEMPO 2812/2815 BKN017
     FM281500 14014KT P6SM BKN035
     FM282000 15016G21KT P6SM SCT050 BKN250
     FM290600 12010KT P6SM BKN015=

USA.gov is the U.S. government's official web portal to all federal, state and local government web resources and services.